Date,TemperatureHighF,TemperatureAvgF,TemperatureLowF,DewpointHighF,DewpointAvgF,DewpointLowF,HumidityHigh,HumidityAvg,HumidityLow,PressureMaxIn,PressureMinIn,WindSpeedMaxMPH,WindSpeedAvgMPH,GustSpeedMaxMPH,PrecipitationSumIn
2013-1-1,29,19,4,23,7,-4,91,61,40,29.74,29.47,12,3,27,0.00
2013-1-2,15,8,0,3,-5,-13,75,56,43,29.94,29.72,11,2,16,0.00
2013-1-3,19,5,-5,0,-6,-13,78,60,36,30.00,29.83,3,0,6,0.00
2013-1-4,32,17,-2,23,10,-7,84,73,58,29.83,29.59,3,0,8,0.01
2013-1-5,32,25,10,21,13,5,80,59,44,30.13,29.58,3,0,11,0.01
2013-1-6,32,20,9,21,14,4,89,77,60,30.10,29.78,0,0,3,0.02
2013-1-7,27,20,4,21,12,0,91,73,40,30.26,29.81,5,0,13,0.02
2013-1-8,32,16,2,22,10,-3,91,78,55,30.24,30.08,1,0,2,0.02
2013-1-9,38,23,12,26,19,9,92,84,61,30.29,29.75,7,0,13,0.01
2013-1-10,38,35,27,32,25,20,91,66,55,30.39,29.75,17,3,17,0.18
2013-1-11,35,28,18,28,20,15,93,74,52,30.40,30.11,3,0,6,0.01
2013-1-12,36,32,30,35,31,28,97,96,93,30.12,29.98,0,0,0,0.01
2013-1-13,37,34,32,36,33,31,97,97,97,30.01,29.87,2,0,3,0.01
2013-1-14,49,37,33,45,29,21,98,73,58,30.06,29.76,5,0,11,0.01
2013-1-15,36,30,26,22,20,16,78,64,53,30.17,30.06,8,1,11,0.01
2013-1-16,27,26,24,25,21,18,92,82,72,30.13,29.73,0,0,2,0.00
2013-1-17,32,21,12,28,10,-3,93,67,31,29.99,29.64,11,1,21,0.08
2013-1-18,15,7,0,-2,-11,-21,75,45,26,30.27,29.96,10,1,17,0.01
2013-1-19,31,18,0,24,12,-6,89,78,57,30.23,29.76,2,0,7,0.04
2013-1-20,43,28,16,29,18,4,92,68,38,29.75,29.29,19,4,27,0.20
2013-1-21,23,15,7,10,-2,-8,80,48,26,29.90,29.70,10,1,18,0.01
2013-1-22,17,10,2,5,-2,-20,82,58,31,29.90,29.67,8,1,15,0.00
2013-1-23,2,-2,-6,-15,-20,-23,51,40,30,29.98,29.89,22,3,22,0.00
2013-1-24,9,0,-7,-12,-18,-22,53,42,27,30.01,29.86,20,3,29,0.00
2013-1-25,15,8,0,-3,-8,-14,62,48,31,30.11,29.95,17,3,25,0.00
2013-1-26,16,11,5,-3,-7,-11,61,45,29,30.01,29.89,11,2,19,0.00
2013-1-27,21,13,7,-3,-6,-13,57,42,27,30.29,30.01,16,3,30,0.00
2013-1-28,22,14,4,14,1,-12,88,61,24,30.29,29.95,4,0,6,0.00
2013-1-29,32,21,5,27,17,1,95,84,67,30.09,29.94,2,0,6,0.19
2013-1-30,36,33,28,36,32,27,99,97,95,30.02,29.31,0,0,3,0.23
2013-1-31,52,38,26,52,30,9,99,75,42,29.29,28.68,11,4,20,0.97
2013-2-1,26,19,13,12,2,-3,58,47,39,29.90,29.28,11,3,14,0.00
2013-2-2,22,15,7,11,2,-5,78,56,37,30.06,29.89,7,1,13,0.00
2013-2-3,28,19,9,11,9,6,87,66,43,29.92,29.59,6,0,8,0.00
2013-2-4,24,18,12,10,4,-8,79,55,32,29.73,29.53,15,2,20,0.00
2013-2-5,22,13,2,4,-6,-11,66,45,25,29.90,29.73,7,1,14,0.00
2013-2-6,32,19,11,18,6,-10,75,58,29,30.15,29.79,7,2,13,0.00
2013-2-7,20,11,6,-3,-10,-15,60,40,21,30.45,30.15,7,1,14,0.00
2013-2-8,12,9,5,8,2,-12,86,75,36,30.44,29.87,1,0,3,0.00
2013-2-9,14,12,11,11,9,4,87,84,74,30.02,29.68,13,3,18,0.00
2013-2-10,33,18,5,15,4,-1,80,59,26,30.24,30.02,8,1,18,0.06
2013-2-11,26,15,2,25,12,-2,95,85,75,30.22,29.46,2,0,2,0.00
2013-2-12,39,32,23,33,26,22,95,81,64,29.63,29.41,7,0,16,0.36
2013-2-13,38,31,27,26,22,20,83,69,49,29.67,29.61,10,1,14,0.01
2013-2-14,38,30,21,23,20,17,84,67,46,29.86,29.57,2,0,10,0.01
2013-2-15,45,28,21,27,22,17,86,79,48,29.86,29.75,0,0,2,0.00
2013-2-16,34,28,23,28,22,6,93,77,49,29.82,29.66,1,0,6,0.09
2013-2-17,23,17,13,12,5,-1,80,58,43,29.67,29.14,18,5,35,0.01
2013-2-18,27,17,9,3,-2,-7,58,44,27,29.93,29.36,12,3,28,0.00
2013-2-19,39,25,11,31,8,-5,95,55,17,29.98,29.46,4,1,10,0.24
2013-2-20,35,30,25,31,22,12,96,73,53,29.51,29.31,14,3,20,0.43
2013-2-21,25,21,14,18,10,3,74,61,49,30.06,29.50,7,1,20,0.01
2013-2-22,41,29,22,24,18,15,78,65,39,30.27,30.04,4,0,7,0.00
2013-2-23,32,28,23,30,24,17,95,84,75,30.21,29.89,1,0,3,0.01
2013-2-24,31,28,26,28,26,24,95,92,89,29.89,29.67,0,0,0,0.01
2013-2-25,42,31,25,34,28,23,96,87,63,30.10,29.78,2,0,3,0.76
2013-2-26,40,32,26,32,28,25,95,84,55,30.23,30.10,1,0,4,0.17
2013-2-27,31,29,27,29,27,25,95,93,90,30.13,29.62,0,0,0,0.01
2013-2-28,35,31,29,33,30,28,96,95,93,29.50,29.44,0,0,3,0.00
2013-3-1,36,32,29,30,28,27,95,87,69,29.54,29.42,2,0,7,0.14
2013-3-2,38,32,29,28,26,24,92,80,60,29.54,29.49,11,1,13,0.16
2013-3-3,39,32,28,30,26,21,92,79,61,29.51,29.41,7,1,12,0.12
2013-3-4,32,29,27,22,20,18,75,71,60,29.60,29.40,8,1,14,0.02
2013-3-5,43,34,29,32,26,21,94,73,57,29.99,29.60,6,0,8,0.02
2013-3-6,36,32,29,31,28,24,95,87,74,30.14,29.99,2,0,11,0.04
2013-3-7,33,31,29,24,22,22,81,71,64,30.11,30.00,2,0,7,0.03
2013-3-8,48,34,29,23,20,17,78,60,30,30.09,29.95,2,0,6,0.01
2013-3-9,55,32,26,21,18,16,81,59,25,30.23,30.08,1,0,3,0.01
2013-3-10,45,31,19,27,23,17,92,74,43,30.29,30.16,3,0,7,0.00
2013-3-11,47,37,30,33,30,27,89,76,52,30.16,30.00,2,0,6,0.00
2013-3-12,46,42,32,46,41,30,99,97,93,29.99,29.58,9,1,11,1.28
2013-3-13,44,40,30,43,34,27,98,79,61,29.60,29.56,5,1,10,0.81
2013-3-14,34,26,16,22,13,2,94,59,51,29.63,29.51,8,3,22,0.00
2013-3-15,33,22,13,21,8,0,77,56,31,29.68,29.46,14,2,16,0.00
2013-3-16,34,26,15,21,11,7,83,56,34,29.76,29.50,8,1,19,5.86
2013-3-17,27,20,10,10,4,-4,84,51,32,30.17,29.76,16,2,24,0.00
2013-3-18,35,22,9,15,1,-5,66,42,21,30.32,30.14,7,1,11,0.00
2013-3-19,27,25,21,24,21,16,91,85,63,30.14,29.60,2,0,2,0.04
2013-3-20,35,24,13,25,18,10,91,79,47,29.60,29.48,14,2,18,0.19
2013-3-21,41,26,11,21,14,8,89,65,29,29.63,29.47,7,0,11,0.38
2013-3-22,36,29,23,20,15,12,75,58,37,29.53,29.46,13,1,17,0.03
2013-3-23,36,30,19,23,18,12,76,62,49,29.54,29.39,16,4,28,0.01
2013-3-24,42,34,27,23,22,21,82,61,46,29.66,29.53,17,2,24,0.00
2013-3-25,41,33,24,28,25,22,90,73,55,29.66,29.49,0,0,6,0.00
2013-3-26,41,32,28,26,23,20,75,68,46,29.61,29.47,4,1,6,0.00
2013-3-27,44,36,27,32,26,21,94,69,46,29.75,29.59,8,2,17,0.04
2013-3-28,45,38,32,34,31,28,95,78,60,29.86,29.76,1,0,5,0.05
2013-3-29,47,40,33,32,29,26,86,66,48,29.89,29.83,15,2,16,0.01
2013-3-30,49,38,28,30,20,13,79,52,23,29.96,29.88,7,1,16,0.00
2013-3-31,52,38,26,31,19,-100,83,60,26,29.99,29.72,4,0,11,0.00
2013-4-1,49,38,32,41,33,16,96,83,58,29.65,29.34,8,2,16,0.50
2013-4-2,34,31,28,16,13,9,59,47,38,29.66,29.56,13,6,13,0.05
2013-4-3,38,34,27,16,9,6,55,36,27,29.92,29.70,26,7,31,0.00
2013-4-4,38,32,29,16,12,8,55,45,28,30.09,29.92,11,3,12,0.00
2013-4-5,49,41,34,26,22,20,68,49,33,29.70,29.56,8,4,13,0.00
2013-4-6,35,29,22,20,9,2,63,45,25,30.05,29.70,8,4,22,0.00
2013-4-7,48,45,39,31,25,16,72,48,27,29.98,29.83,11,7,17,0.00
2013-4-8,46,41,38,32,32,32,79,70,57,29.91,29.80,1,0,13,0.00
2013-4-9,39,38,35,38,36,34,97,93,88,29.90,29.81,1,0,8,0.33
2013-4-10,52,43,36,45,39,35,97,86,66,29.88,29.77,3,0,8,0.22
2013-4-11,47,42,38,38,23,11,96,54,26,29.92,29.79,3,1,8,0.08
2013-4-15,37,37,36,34,34,34,94,91,90,30.27,30.24,0,0,2,0.00
2013-4-16,54,44,36,50,41,34,96,90,55,30.27,29.79,10,1,19,0.07
2013-4-17,59,49,33,50,31,24,90,54,28,30.23,29.79,11,5,19,0.01
2013-4-18,48,35,26,32,27,22,85,72,46,30.36,30.11,7,1,17,0.01
2013-4-19,65,62,59,56,55,55,91,79,70,29.52,29.44,3,2,13,0.00
2013-4-20,59,53,39,56,23,2,94,38,10,30.02,29.40,255,3,255,0.10
2013-4-21,43,35,29,22,19,16,69,52,36,30.58,30.02,12,4,22,0.00
2013-4-22,45,32,27,28,21,14,85,67,28,30.67,30.54,2,0,11,0.00
2013-4-23,43,33,24,37,30,22,93,86,68,30.54,30.14,0,0,3,0.00
2013-4-24,63,46,39,51,42,37,95,87,64,30.14,29.63,2,1,5,0.01
2013-4-27,53,44,38,38,36,34,84,74,55,30.20,30.16,0,0,1,0.00
2013-4-28,69,51,30,37,31,-100,94,56,27,30.21,30.09,7,1,13,0.00
2013-4-29,68,48,33,42,35,30,90,66,30,30.13,30.04,7,0,12,0.00
2013-4-30,69,59,45,40,35,32,67,42,28,30.23,30.14,5,2,8,0.00
2013-5-1,65,48,32,38,33,29,88,62,30,30.30,30.29,1,0,5,0.00
2013-5-2,58,43,37,42,35,32,82,74,56,30.38,30.28,2,0,7,0.00
2013-5-3,54,42,30,45,37,28,93,86,72,30.43,30.24,0,0,0,0.00
2013-5-4,59,43,38,42,39,33,92,87,53,30.26,30.20,2,0,3,0.00
2013-5-5,67,43,30,41,34,28,95,77,38,30.20,30.08,6,1,8,0.00
2013-5-6,73,61,37,46,40,32,83,50,27,30.13,29.97,255,1,255,0.00
2013-5-7,66,60,55,50,49,48,76,68,57,30.04,30.02,1,0,3,0.00
2013-5-8,75,68,61,58,56,55,89,67,53,30.07,30.00,8,4,16,0.03
2013-5-10,65,60,56,58,57,53,94,88,76,29.80,29.77,255,0,255,0.30
2013-5-11,56,56,56,53,30,6,90,48,13,29.77,29.61,255,0,255,0.30
2013-5-12,44,42,39,41,38,34,93,87,77,29.61,29.55,0,0,4,0.00
2013-5-13,55,42,32,36,31,26,91,67,37,29.89,29.60,7,1,13,0.01
2013-5-14,57,44,31,35,29,25,92,60,31,29.91,29.83,7,1,17,0.00
2013-5-15,64,42,28,46,31,26,94,70,27,29.90,29.62,9,1,13,0.07
2013-5-16,73,56,55,45,20,-100,60,45,28,29.64,29.42,12,5,24,0.18
2013-5-17,65,52,43,42,32,-100,83,62,36,30.07,29.68,6,1,14,0.03
2013-5-18,61,43,35,44,38,33,96,86,53,30.19,30.09,3,0,7,0.01
2013-5-19,61,48,40,50,43,36,95,82,65,30.25,30.10,2,0,3,0.01
2013-5-20,73,62,50,55,53,48,93,77,53,30.10,29.79,255,1,255,0.01
2013-5-21,54,52,51,53,51,50,97,96,95,29.95,29.83,255,1,255,0.21
2013-5-22,55,50,48,53,49,47,97,96,88,29.88,29.80,3,0,3,0.56
2013-5-23,67,63,57,63,59,54,91,88,87,29.72,29.67,0,0,0,0.01
2013-5-24,53,50,48,50,48,46,94,91,85,29.74,29.62,5,1,12,0.60
2013-5-25,46,45,44,45,44,43,96,96,95,29.71,29.65,0,0,3,1.23
2013-5-26,51,46,40,43,39,37,95,79,66,29.84,29.53,255,4,255,0.81
2013-5-27,66,62,57,51,39,32,80,45,30,29.99,29.88,8,3,20,0.00
2013-5-28,57,57,57,51,51,51,80,80,80,30.09,30.03,255,0,255,0.00
2013-5-30,85,76,62,62,59,56,91,59,39,29.90,29.80,11,1,12,0.00
2013-5-31,89,71,61,69,62,58,91,76,41,29.90,29.72,255,0,255,0.00
2013-6-1,83,68,66,70,63,61,92,83,64,29.77,29.64,255,0,255,0.01
2013-6-2,91,75,66,70,66,64,92,76,45,29.64,29.52,255,1,255,0.01
2013-6-3,59,26,0,52,23,0,100,91,79,29.61,29.61,0,0,0,0.00
2013-6-4,63,56,47,47,43,41,85,63,44,29.92,29.64,8,2,11,0.00
2013-6-5,69,55,42,43,39,35,93,62,28,30.03,29.92,5,1,12,0.00
2013-6-6,62,53,45,50,45,42,88,74,52,30.03,30.02,0,0,3,0.00
2013-6-8,67,65,63,58,58,58,83,78,74,29.61,29.59,0,0,7,0.04
2013-6-9,73,73,72,53,52,51,49,48,46,29.90,29.89,3,1,8,0.00
2013-6-10,72,65,54,58,41,4,75,47,13,30.08,29.90,0,0,1,0.00
2013-6-11,61,61,61,18,18,18,19,19,19,29.89,29.77,0,0,0,0.00
2013-6-12,56,56,56,51,51,51,83,83,83,29.65,29.65,0,0,6,0.00
2013-6-13,70,63,56,54,52,49,83,68,56,29.65,29.57,0,0,6,0.01
2013-6-18,58,55,52,54,53,52,99,93,88,29.81,29.79,0,0,0,0.00
2013-6-19,75,60,52,52,47,40,99,67,29,30.01,29.80,255,0,255,0.00
2013-6-20,78,54,42,50,43,40,94,72,32,30.11,30.00,1,0,7,0.00
2013-6-22,78,76,74,68,66,64,78,70,66,29.99,29.96,0,0,1,0.00
2013-6-24,90,82,70,69,67,66,87,64,48,29.74,29.67,255,1,255,0.04
2013-6-25,87,77,69,67,66,65,87,72,52,29.70,29.66,255,0,255,0.04
2013-6-30,85,84,82,71,67,65,67,57,55,29.64,29.64,0,0,7,0.00
2013-7-4,90,87,85,76,75,72,74,68,56,29.91,29.88,1,0,6,0.02
2013-7-5,90,90,90,73,73,73,57,57,57,29.85,29.85,0,0,0,0.00
2013-7-6,88,86,84,71,70,69,61,60,58,29.83,29.80,0,0,7,0.00
2013-7-7,84,79,74,70,68,67,88,72,57,29.78,29.76,0,0,1,0.00
2013-7-11,79,72,65,68,65,61,87,79,68,29.80,29.67,0,0,3,0.00
2013-7-14,72,70,69,68,68,67,94,90,87,30.04,30.04,0,0,0,0.00
2013-7-15,91,81,69,70,67,65,88,65,45,29.96,29.90,0,0,9,0.00
2013-7-16,88,72,68,72,67,65,99,86,59,30.00,29.94,1,0,4,0.00
2013-7-17,79,68,65,72,66,63,99,94,78,30.00,29.78,255,0,255,0.34
2013-7-18,82,80,71,74,73,70,96,80,77,29.80,29.78,2,2,6,0.35
2013-7-19,88,77,68,75,71,67,97,82,59,29.78,29.47,255,1,255,0.03
2013-7-20,81,71,67,69,68,66,95,88,67,29.52,29.47,0,0,0,0.18
2013-7-21,76,65,58,61,58,55,94,80,60,29.84,29.65,2,0,6,0.01
2013-7-22,63,60,58,61,58,57,95,95,94,29.88,29.80,0,0,0,0.01
2013-7-23,68,62,59,67,61,58,98,96,93,29.80,29.41,2,0,3,2.24
2013-7-24,78,68,58,71,62,49,97,84,60,29.84,29.42,8,0,12,0.06
2013-7-25,72,62,52,55,52,48,87,69,55,29.98,29.84,0,0,3,0.00
2013-7-26,71,67,60,63,62,58,94,84,74,29.91,29.78,0,0,5,0.04
2013-7-27,85,70,59,65,61,57,96,75,45,29.85,29.79,6,1,8,1.56
2013-7-28,75,65,56,66,62,55,97,89,69,29.88,29.85,5,1,8,0.01
2013-7-29,78,65,62,68,64,61,97,94,71,29.90,29.82,3,0,8,0.64
2013-7-30,79,67,56,61,57,52,98,75,42,29.93,29.87,6,0,13,0.31
2013-7-31,81,61,52,61,55,51,98,84,48,29.99,29.89,1,0,6,3.24
2013-8-1,79,62,54,63,59,53,97,90,55,29.89,29.71,5,1,6,1.62
2013-8-2,78,66,61,67,63,60,98,91,66,29.71,29.59,13,0,20,0.68
2013-8-3,76,63,53,62,57,52,99,85,50,29.67,29.58,4,0,8,0.03
2013-8-4,75,61,52,60,54,50,97,80,52,29.70,29.61,7,1,12,0.04
2013-8-5,71,58,49,53,48,42,91,74,44,29.89,29.69,14,2,14,0.01
2013-8-6,79,60,45,58,51,44,97,76,36,30.00,29.89,5,0,8,0.00
2013-8-8,74,67,57,70,63,54,92,88,82,29.96,29.85,0,0,3,0.04
2013-8-9,71,69,67,69,67,66,97,96,94,29.78,29.60,0,0,10,2.49
2013-8-10,76,66,58,65,57,48,98,78,39,29.77,29.59,5,1,19,1.41
2013-8-11,72,58,47,54,51,46,96,80,54,29.90,29.85,3,1,5,0.00
2013-8-12,76,63,54,56,54,53,96,78,47,29.85,29.76,0,0,0,0.00
2013-8-13,65,59,54,64,56,-100,97,93,93,29.76,29.54,0,0,2,0.77
2013-8-14,74,66,55,64,58,48,97,78,46,29.73,29.49,6,1,13,0.25
2013-8-15,54,54,54,53,53,53,96,96,96,29.87,29.87,1,1,1,0.00
2013-8-16,75,69,61,59,58,55,93,69,49,30.02,29.96,2,1,5,0.00
2013-8-17,70,60,54,58,55,53,95,84,65,30.12,30.09,0,0,0,0.00
2013-8-18,76,60,48,66,50,-100,97,80,60,30.14,29.92,2,0,3,0.00
2013-8-19,66,62,57,61,59,56,95,91,85,29.91,29.79,0,0,0,0.00
2013-8-20,65,62,60,61,59,58,94,91,87,29.92,29.81,0,0,0,0.00
2013-8-21,88,74,63,68,65,61,95,76,49,29.96,29.83,0,0,3,0.00
2013-8-22,88,68,58,70,62,57,96,83,47,29.83,29.60,0,0,7,0.00
2013-8-23,76,66,53,62,54,47,81,66,44,30.00,29.63,5,1,8,0.00
2013-8-24,80,57,45,58,48,43,96,76,31,30.17,30.00,0,0,0,0.00
2013-8-25,80,58,43,57,45,-100,96,72,37,30.20,30.00,6,0,7,0.00
2013-8-26,71,62,56,68,61,54,96,94,90,30.00,29.73,0,0,2,0.15
2013-8-27,83,64,58,70,61,57,99,92,65,29.75,29.70,0,0,0,0.08
2013-8-28,86,70,63,68,65,62,96,86,55,29.86,29.71,2,0,8,0.54
2013-8-29,65,62,59,62,60,58,97,95,89,29.94,29.83,2,0,3,0.21
2013-8-30,84,67,59,70,62,58,97,86,57,29.89,29.63,0,0,8,0.03
2013-8-31,78,68,64,70,66,63,97,92,69,29.67,29.60,0,0,3,0.05
2013-9-1,79,68,68,70,54,-100,96,74,72,29.70,29.63,0,0,0,0.00
2013-9-2,68,66,63,67,55,-100,96,90,95,29.72,29.59,255,0,255,0.83
2013-9-3,78,68,61,66,64,60,96,87,64,29.60,29.54,2,0,3,0.10
2013-9-4,80,66,60,60,58,55,93,78,43,29.73,29.65,0,0,6,0.03
2013-9-5,68,58,44,58,50,42,95,79,41,30.00,29.70,6,1,7,0.09
2013-9-6,71,52,38,49,44,36,94,80,39,30.04,29.89,0,0,4,0.00
2013-9-7,74,52,44,58,49,43,96,91,58,29.89,29.65,1,0,5,0.02
2013-9-8,58,52,43,56,45,-100,97,83,52,29.93,29.58,8,1,10,0.18
2013-9-9,51,43,39,49,41,37,96,93,92,30.06,29.93,0,0,0,0.00
2013-9-10,63,58,46,60,56,45,95,93,91,29.94,29.89,255,0,255,0.00
2013-9-11,68,63,61,67,62,60,96,95,95,29.91,29.81,0,0,0,0.01
2013-9-12,81,70,65,71,67,64,96,90,71,29.56,29.52,6,2,10,0.28
2013-9-13,65,61,54,64,60,52,96,95,93,29.59,29.44,2,0,3,0.24
2013-9-14,64,54,49,52,51,46,96,89,62,29.87,29.59,0,0,6,0.01
2013-9-15,72,56,41,56,43,-100,96,71,47,29.98,29.87,5,0,6,0.01
2013-9-16,60,52,42,51,46,34,96,81,54,30.10,29.83,0,0,7,0.10
2013-9-17,63,46,34,42,38,32,95,77,43,30.27,30.17,2,0,8,0.09
2013-9-19,65,49,41,58,47,40,98,94,78,29.99,29.88,0,0,1,0.00
2013-9-20,75,53,43,58,49,42,99,88,48,29.98,29.86,2,0,7,0.00
2013-9-21,69,60,48,60,55,47,97,85,63,29.88,29.60,9,2,12,0.01
2013-9-22,61,57,50,59,51,42,92,80,68,29.63,29.44,255,2,255,0.01
2013-9-23,54,49,45,41,38,36,79,68,60,29.81,29.65,10,2,18,0.00
2013-9-24,55,48,43,43,40,37,90,72,61,29.80,29.71,12,2,18,0.00
2013-9-25,59,48,40,48,42,39,95,83,60,29.86,29.74,6,0,11,0.00
2013-9-26,67,51,41,51,45,39,96,82,53,30.01,29.86,1,0,3,0.00
2013-9-27,70,57,47,53,50,46,96,79,51,30.12,30.01,2,0,8,0.00
2013-9-28,74,56,43,55,49,42,97,80,44,30.21,30.12,0,0,6,0.00
2013-9-29,71,54,40,53,44,-100,97,76,47,30.14,29.97,0,0,1,0.00
2013-9-30,52,44,37,50,42,36,96,95,93,29.98,29.85,0,0,0,0.00
2013-10-1,57,53,46,53,50,45,95,90,86,29.85,29.72,0,0,0,0.00
2013-10-2,72,56,51,55,51,48,95,85,51,29.74,29.62,255,0,255,0.00
2013-10-3,71,52,46,51,46,44,93,82,50,29.92,29.74,0,0,8,2.57
2013-10-4,68,54,42,56,48,41,96,82,54,29.94,29.89,0,0,2,0.00
2013-10-5,61,54,45,51,47,44,95,78,54,30.01,29.93,0,0,3,0.01
2013-10-6,51,45,44,45,37,-100,96,80,59,30.15,30.02,1,0,3,0.14
2013-10-7,47,47,46,46,46,45,96,96,96,30.07,29.93,0,0,0,0.14
2013-10-8,54,44,39,41,38,36,90,80,57,30.25,30.12,1,0,3,0.00
2013-10-9,63,43,31,47,37,30,97,83,43,30.36,30.23,1,0,4,0.00
2013-10-10,59,41,32,51,38,31,95,90,75,30.23,30.06,0,0,0,0.00
2013-10-11,50,45,42,48,43,40,95,94,93,30.07,30.02,0,0,0,0.00
2013-10-12,44,44,43,43,43,42,96,95,95,30.23,30.09,0,0,0,0.00
2013-10-14,63,59,53,53,51,49,87,76,63,30.13,30.08,0,0,2,0.00
2013-10-15,64,54,48,52,50,48,99,85,62,30.15,30.06,2,0,3,0.00
2013-10-16,59,54,46,50,48,45,95,83,64,30.06,29.79,0,0,0,0.00
2013-10-17,71,59,46,56,51,42,96,75,49,29.79,29.58,3,0,7,0.00
2013-10-18,65,50,43,49,46,41,96,86,50,29.68,29.45,10,1,24,0.04
2013-10-19,64,49,38,47,41,35,93,76,42,29.78,29.60,1,0,9,0.01
2013-10-20,58,47,39,47,36,-100,96,71,35,29.81,29.52,7,1,20,0.01
2013-10-21,57,42,31,42,35,29,94,78,47,29.95,29.81,0,0,3,0.00
2013-10-22,53,45,36,50,43,34,96,91,79,29.83,29.56,3,0,5,0.01
2013-10-23,53,39,29,36,32,28,96,79,41,29.63,29.44,1,0,5,0.00
2013-10-24,47,40,29,32,28,23,90,64,39,29.67,29.47,14,3,18,0.00
2013-10-25,43,38,32,29,27,24,78,65,52,29.95,29.67,3,1,12,0.00
2013-10-26,45,36,26,34,28,23,88,73,50,29.97,29.70,1,0,7,0.00
2013-10-27,51,42,35,34,30,-100,93,66,45,29.78,29.63,14,2,14,0.00
2013-10-28,48,36,26,34,25,-100,91,72,53,30.21,29.86,8,2,14,0.00
2013-10-29,47,28,19,25,19,16,90,72,29,30.32,30.21,0,0,6,0.00
2013-10-30,45,30,22,29,22,18,91,75,39,30.22,30.04,5,0,8,0.00
2013-10-31,40,32,23,39,30,21,97,93,81,30.10,29.65,0,0,0,0.28
2013-11-1,60,53,40,53,46,39,97,78,57,29.63,29.20,13,5,13,0.00
2013-11-2,62,46,37,46,40,36,96,83,47,29.62,29.39,5,0,11,0.03
2013-11-3,41,35,28,38,21,-100,92,62,42,30.22,29.62,3,1,12,0.03
2013-11-4,39,28,21,20,17,13,81,66,34,30.58,30.48,2,0,2,0.00
2013-11-5,45,27,18,27,20,15,92,77,44,30.59,30.35,2,0,4,0.00
2013-11-6,51,38,26,42,33,25,94,83,60,30.35,29.83,4,0,8,0.00
2013-11-7,52,47,38,49,41,25,94,81,58,29.83,29.51,255,2,255,0.02
2013-11-8,42,35,27,26,22,20,82,60,47,29.84,29.64,12,3,17,0.01
2013-11-9,40,34,31,29,20,-100,91,59,44,29.98,29.85,5,1,10,0.00
2013-11-10,37,33,31,35,31,29,97,95,92,29.91,29.58,1,0,3,0.08
2013-11-11,42,36,31,33,28,25,97,75,51,29.86,29.60,6,1,17,0.01
2013-11-12,37,30,27,30,20,13,86,65,51,29.97,29.67,3,0,7,0.01
2013-11-13,25,21,19,13,10,7,75,62,47,30.06,29.94,0,0,2,0.00
2013-11-14,38,25,20,23,18,13,90,76,52,29.94,29.87,0,0,0,0.00
2013-11-15,41,28,22,27,23,20,93,83,56,30.03,29.93,1,0,2,0.00
2013-11-16,54,31,26,25,21,-100,88,74,26,30.20,30.05,0,0,2,0.00
2013-11-17,40,34,25,39,32,22,97,93,84,30.21,29.81,0,0,0,0.22
2013-11-18,58,44,40,51,40,28,99,85,47,29.79,29.33,24,2,28,0.71
2013-11-19,43,36,29,27,22,16,66,57,51,30.08,29.41,18,6,24,0.00
2013-11-20,20,20,20,13,13,13,75,75,75,30.50,30.50,0,0,0,0.00
2013-11-21,25,18,16,15,13,12,86,79,65,30.50,30.25,0,0,0,0.00
2013-11-22,34,31,24,32,28,17,96,90,75,30.17,29.73,0,0,0,0.04
2013-11-23,33,33,32,32,32,31,96,96,96,29.63,29.61,0,0,0,0.04
2013-11-24,19,17,15,5,2,-1,57,51,44,29.90,29.59,14,8,28,0.01
2013-11-25,25,19,12,8,2,-5,64,48,28,30.16,29.99,6,1,13,0.00
2013-11-26,31,27,23,27,22,7,94,82,46,30.16,30.05,1,0,3,0.04
2013-11-27,42,34,29,42,33,27,99,96,91,30.03,29.08,6,0,11,1.02
2013-11-28,34,25,16,29,11,1,82,57,36,30.24,29.13,12,4,22,0.01
2013-11-29,23,16,10,7,5,2,82,63,40,30.62,30.26,6,1,9,0.00
2013-11-30,24,15,4,17,7,0,85,73,42,30.69,30.30,4,0,6,0.00
2013-12-1,35,30,25,29,24,16,95,80,68,30.29,29.96,0,0,6,0.00
2013-12-2,32,31,30,31,30,29,97,96,95,29.97,29.81,0,0,0,0.27
2013-12-3,41,33,31,36,31,27,97,94,79,29.81,29.74,0,0,6,0.25
2013-12-4,37,33,24,27,24,21,92,68,62,30.08,29.75,7,2,11,0.01
2013-12-5,32,28,23,31,26,21,97,94,90,30.12,29.78,0,0,0,0.14
2013-12-6,36,33,32,35,31,20,98,92,56,29.95,29.75,0,0,2,0.31
2013-12-7,34,29,21,27,16,5,81,58,42,30.28,29.94,6,1,20,0.01
2013-12-8,26,22,19,12,7,4,69,52,40,30.44,30.27,15,1,15,0.01
2013-12-9,23,21,19,21,15,8,91,79,59,30.40,29.73,2,0,2,0.00
2013-12-10,28,22,16,25,18,9,93,87,61,29.76,29.61,2,0,13,0.00
2013-12-11,26,19,6,18,10,3,89,70,51,29.99,29.76,3,1,12,0.01
2013-12-12,14,9,3,7,-1,-8,81,62,40,30.11,29.86,5,1,11,0.01
2013-12-13,18,8,1,3,-4,-11,85,60,41,30.26,29.78,11,2,18,0.00
2013-12-14,12,5,-3,1,-11,-100,81,50,30,30.50,30.26,2,0,5,0.00
2013-12-15,7,7,6,3,2,1,84,84,81,30.32,29.43,0,0,0,0.00
2013-12-16,8,4,1,-3,-8,-11,61,58,55,30.08,30.00,4,0,6,0.00
2013-12-17,10,2,-10,3,-7,-16,81,65,41,30.20,29.97,1,0,2,0.00
2013-12-18,28,19,9,18,12,4,86,76,55,29.94,29.73,3,0,8,0.00
2013-12-19,29,18,10,23,6,-100,91,78,75,29.96,29.79,2,0,2,0.00
2013-12-20,33,27,15,30,24,13,94,91,81,29.99,29.79,0,0,0,0.00
2013-12-21,36,32,30,32,21,-100,96,87,84,29.81,29.70,0,0,0,0.10
2013-12-22,33,31,31,32,30,30,96,96,96,29.84,29.76,0,0,0,0.21
2013-12-23,32,31,31,31,30,30,97,96,96,29.93,29.87,0,0,0,0.00
2013-12-24,32,21,9,31,17,2,96,86,74,30.07,29.91,0,0,0,0.00
2013-12-25,18,8,2,11,2,-5,85,75,64,30.42,30.07,0,-12,0,0.00
2013-12-26,20,13,5,17,11,1,100,88,84,30.40,29.98,0,-14,0,0.00
2013-12-27,29,16,6,24,12,2,91,87,72,30.09,30.01,0,0,0,0.01
2013-12-28,33,19,5,30,13,-100,94,87,85,30.04,29.81,0,0,0,0.06
2013-12-29,31,25,14,30,21,-100,96,91,89,29.89,29.46,0,0,0,0.03
2013-12-30,29,19,3,28,15,-6,96,83,65,30.04,29.42,10,2,13,0.00
2013-12-31,9,-1,-6,0,-7,-11,81,74,61,30.05,29.92,3,0,6,0.45
2014-1-1,18,2,-8,5,-5,-14,81,72,49,30.26,29.99,6,-29,16,0.00